Weather History for K36U - October, 2012

Change the Weather History Date:

Friday, October 5, 2012

  Actual Average (KPVU) Record (KPVU)
Temperature  
Mean Temperature 47 °F -  
Max Temperature 62 °F 68 °F 84 °F (1985)
Min Temperature 32 °F 40 °F 30 °F (2013)
Degree Days  
Heating Degree Days 18    
Moisture  
Dew Point 18 °F    
Average Humidity 36    
Maximum Humidity 65    
Minimum Humidity 14    
Precipitation  
Precipitation 0.00 in - - ()
Sea Level Pressure  
Sea Level Pressure 30.15 in    
Wind  
Wind Speed 5 mph (South)    
Max Wind Speed 21 mph    
Max Gust Speed 33 mph    
Visibility 10 miles    
Events      
Averages and records for this station are not official NWS values.
T = Trace of Precipitation, MM = Missing Value Source: NWS Daily Summary

Daily Weather History Graph

Daily Weather History Graph

Search for Another Location

Airport or City:

Trip Planner

Search our weather history database for the weather conditions in past years. The results will help you decide how hot, cold, wet, or windy it might be!

Date:

Astronomy

Oct. 05, 2012 Rise Set
Actual Time 7:26 AM MDT 7:00 PM MDT
Civil Twilight 6:59 AM MDT 7:27 PM MDT
Nautical Twilight 6:27 AM MDT 7:59 PM MDT
Astronomical Twilight 5:56 AM MDT 8:30 PM MDT
Moon 10:26 PM MDT (10/5) 12:38 PM MDT (10/5)
Length of Visible Light 12h 28m
Length of Day
11h 33m
Waning Gibbous, 73% of the Moon is Illuminated
Oct 5
Waning Gibbous
Oct 8
Last Quarter
Oct 15
New
Oct 21
First Quarter
Oct 29
Full

Hourly Weather History & Observations

Time (MDT) Temp. Windchill Dew Point Humidity Pressure Visibility Wind Dir Wind Speed Gust Speed Precip Events Conditions
12:15 AM 44.6 °F 40.7 °F 28.4 °F 53% 30.06 in 10.0 mi East 6.9 mph - N/A   Clear
12:35 AM 46.4 °F 43.5 °F 26.6 °F 46% 30.06 in 10.0 mi East 5.8 mph - N/A   Clear
12:55 AM 44.6 °F 40.2 °F 26.6 °F 49% 30.06 in 10.0 mi ESE 8.1 mph - N/A   Clear
1:15 AM 46.4 °F 41.9 °F 26.6 °F 46% 30.06 in 10.0 mi ESE 9.2 mph - N/A   Clear
1:35 AM 46.4 °F 44.3 °F 24.8 °F 43% 30.07 in 10.0 mi NE 4.6 mph - N/A   Clear
1:55 AM 41.0 °F - 28.4 °F 61% 30.07 in 10.0 mi Calm Calm - N/A   Clear
2:15 AM 42.8 °F - 28.4 °F 57% 30.08 in 10.0 mi Calm Calm - N/A   Clear
2:35 AM 37.4 °F 32.1 °F 26.6 °F 65% 30.09 in 10.0 mi East 6.9 mph - N/A   Clear
2:55 AM 41.0 °F 35.2 °F 26.6 °F 57% 30.09 in 10.0 mi ESE 9.2 mph - N/A   Clear
3:15 AM 37.4 °F 32.8 °F 26.6 °F 65% 30.10 in 10.0 mi East 5.8 mph - N/A   Clear
3:35 AM 37.4 °F 34.9 °F 26.6 °F 65% 30.10 in 10.0 mi East 3.5 mph - N/A   Clear
3:55 AM 37.4 °F - 26.6 °F 65% 30.11 in 10.0 mi Calm Calm - N/A   Clear
4:15 AM 35.6 °F 31.7 °F 24.8 °F 65% 30.12 in 10.0 mi ESE 4.6 mph - N/A   Clear
4:35 AM 41.0 °F 39.0 °F 19.4 °F 42% 30.12 in 10.0 mi ENE 3.5 mph - N/A   Clear
4:55 AM 37.4 °F 34.9 °F 21.2 °F 52% 30.13 in 10.0 mi East 3.5 mph - N/A   Clear
5:15 AM 37.4 °F 33.8 °F 21.2 °F 52% 30.14 in 10.0 mi South 4.6 mph - N/A   Clear
5:35 AM 37.4 °F - 19.4 °F 48% 30.15 in 10.0 mi Calm Calm - N/A   Clear
5:55 AM 41.0 °F - 17.6 °F 39% 30.15 in 10.0 mi Calm Calm - N/A   Clear
6:15 AM 35.6 °F - 19.4 °F 52% 30.16 in 10.0 mi Calm Calm - N/A   Clear
6:35 AM 37.4 °F 33.8 °F 17.6 °F 45% 30.16 in 10.0 mi ENE 4.6 mph - N/A   Clear
6:55 AM 33.8 °F 28.6 °F 19.4 °F 56% 30.16 in 10.0 mi East 5.8 mph - N/A   Clear
7:15 AM 35.6 °F 31.7 °F 17.6 °F 48% 30.18 in 10.0 mi East 4.6 mph - N/A   Clear
7:35 AM 33.8 °F - 19.4 °F 56% 30.18 in 10.0 mi Calm Calm - N/A   Clear
7:55 AM 32.0 °F - 19.4 °F 60% 30.19 in 5.0 mi Calm Calm - N/A   Haze
8:15 AM 33.8 °F - 21.2 °F 60% 30.20 in 7.0 mi Calm Calm - N/A   Clear
8:55 AM 41.0 °F - 21.2 °F 45% 30.21 in 10.0 mi Calm Calm - N/A   Clear
9:15 AM 42.8 °F 41.1 °F 21.2 °F 42% 30.21 in 10.0 mi West 3.5 mph - N/A   Clear
9:35 AM 44.6 °F - 21.2 °F 39% 30.21 in 10.0 mi Calm Calm - N/A   Clear
9:55 AM 46.4 °F - 19.4 °F 34% 30.21 in 10.0 mi Calm Calm - N/A   Clear
10:15 AM 50.0 °F - 15.8 °F 26% 30.21 in 10.0 mi Calm Calm - N/A   Clear
10:35 AM 50.0 °F - 17.6 °F 28% 30.21 in 10.0 mi Calm Calm - N/A   Clear
10:55 AM 51.8 °F - 14.0 °F 22% 30.21 in 10.0 mi Calm Calm - N/A   Clear
11:15 AM 53.6 °F - 12.2 °F 19% 30.21 in 10.0 mi Calm Calm - N/A   Clear
11:35 AM 53.6 °F - 14.0 °F 21% 30.20 in 10.0 mi Calm Calm - N/A   Clear
11:55 AM 55.4 °F - 12.2 °F 18% 30.20 in 10.0 mi West 3.5 mph - N/A   Clear
12:15 PM 57.2 °F - 10.4 °F 16% 30.19 in 10.0 mi Calm Calm - N/A   Clear
12:35 PM 59.0 °F - 12.2 °F 16% 30.18 in 10.0 mi Calm Calm - N/A   Clear
1:15 PM 60.8 °F - 14.0 °F 16% 30.17 in 10.0 mi SW 10.4 mph - N/A   Clear
1:35 PM 62.6 °F - 12.2 °F 14% 30.16 in 10.0 mi SSW 5.8 mph - N/A   Clear
1:55 PM 62.6 °F - 12.2 °F 14% 30.15 in 10.0 mi SW 5.8 mph - N/A   Clear
2:15 PM 62.6 °F - 14.0 °F 15% 30.14 in 10.0 mi SW 20.7 mph - N/A   Clear
2:35 PM 62.6 °F - 14.0 °F 15% 30.14 in 10.0 mi WSW 13.8 mph 26.5 mph N/A   Clear
3:15 PM 62.6 °F - 17.6 °F 18% 30.13 in 10.0 mi SW 16.1 mph 26.5 mph N/A   Clear
3:35 PM 62.6 °F - 17.6 °F 18% 30.13 in 10.0 mi SW 16.1 mph 33.4 mph N/A   Clear
3:55 PM 62.6 °F - 15.8 °F 16% 30.14 in 10.0 mi SW 12.7 mph 32.2 mph N/A   Clear
4:15 PM 62.6 °F - 15.8 °F 16% 30.13 in 10.0 mi SW 17.3 mph 27.6 mph N/A   Clear
4:35 PM 62.6 °F - 17.6 °F 18% 30.13 in 10.0 mi SW 16.1 mph 25.3 mph N/A   Clear
4:55 PM 60.8 °F - 17.6 °F 19% 30.13 in 10.0 mi WSW 17.3 mph 24.2 mph N/A   Clear
5:15 PM 60.8 °F - 17.6 °F 19% 30.13 in 10.0 mi WSW 10.4 mph 21.9 mph N/A   Clear
5:35 PM 60.8 °F - 17.6 °F 19% 30.12 in 10.0 mi SW 13.8 mph 21.9 mph N/A   Clear
5:55 PM 59.0 °F - 15.8 °F 19% 30.13 in 10.0 mi WSW 9.2 mph 23.0 mph N/A   Clear
6:15 PM 57.2 °F - 15.8 °F 20% 30.13 in 10.0 mi WSW 15.0 mph 25.3 mph N/A   Clear
6:35 PM 55.4 °F - 14.0 °F 20% 30.13 in 10.0 mi SW 15.0 mph 21.9 mph N/A   Clear
6:55 PM 55.4 °F - 14.0 °F 20% 30.13 in 10.0 mi WSW 11.5 mph 15.0 mph N/A   Clear
7:15 PM 53.6 °F - 14.0 °F 21% 30.13 in 10.0 mi WSW 12.7 mph 19.6 mph N/A   Clear
7:35 PM 53.6 °F - 12.2 °F 19% 30.14 in 10.0 mi NW 3.5 mph - N/A   Clear
8:15 PM 50.0 °F - 14.0 °F 24% 30.15 in 10.0 mi ENE 5.8 mph - N/A   Clear
8:35 PM 46.4 °F 42.9 °F 15.8 °F 29% 30.15 in 10.0 mi East 6.9 mph - N/A   Clear
8:55 PM 44.6 °F 39.2 °F 14.0 °F 29% 30.15 in 10.0 mi East 10.4 mph - N/A   Clear
9:15 PM 42.8 °F - 14.0 °F 31% 30.15 in 10.0 mi Calm Calm - N/A   Clear
9:35 PM 44.6 °F - 14.0 °F 29% 30.15 in 10.0 mi Calm Calm - N/A   Clear
10:15 PM 42.8 °F 39.3 °F 12.2 °F 29% 30.16 in 10.0 mi East 5.8 mph - N/A   Clear
10:35 PM 42.8 °F - 14.0 °F 31% 30.16 in 10.0 mi Calm Calm - N/A   Clear
10:55 PM 35.6 °F 32.8 °F 19.4 °F 52% 30.16 in 10.0 mi South 3.5 mph - N/A   Clear
11:15 PM 33.8 °F 30.8 °F 19.4 °F 56% 30.16 in 10.0 mi SE 3.5 mph - N/A   Clear
11:35 PM 33.8 °F - 21.2 °F 60% 30.16 in 10.0 mi Calm Calm - N/A   Clear
11:55 PM 33.8 °F 30.8 °F 19.4 °F 56% 30.17 in 10.0 mi South 3.5 mph - N/A   Clear